Waarnemingen

Advertentie
Mijn weer
Chivenor, Groot Brittannië (3707): temperatuur & dauwpunt: 11.11.2017 17:00:00 - 17.11.2017 17:00:00 (GMT)Chivenor, Groot Brittannië (3707): temperatuur -20cm & temperatuur -100cm: 11.11.2017 17:00:00 - 17.11.2017 17:00:00 (GMT)Chivenor, Groot Brittannië (3707): windsnelheid & windstoten: 11.11.2017 17:00:00 - 17.11.2017 17:00:00 (GMT)Chivenor, Groot Brittannië (3707): windrichting: 11.11.2017 17:00:00 - 17.11.2017 17:00:00 (GMT)Chivenor, Groot Brittannië (3707): luchtdruk: 11.11.2017 17:00:00 - 17.11.2017 17:00:00 (GMT)Chivenor, Groot Brittannië (3707): zicht: 11.11.2017 17:00:00 - 17.11.2017 17:00:00 (GMT)Chivenor, Groot Brittannië (3707): neerslag: 11.11.2017 17:00:00 - 17.11.2017 17:00:00 (GMT)
Datum & Tijd tt [°C] td [°C] tt -20cm [°C] tt -100cm [°C] ff [km/u] ff [kn] fx [km/u] fx [kn] dd ppp [hPa] vv [km] rr [mm]
17.11.2017 17:00:00 - - - - - - - - - - - -
17.11.2017 16:00:00 8,7 2,2 - - 5 3 - - NO 1029,5 45 0,0
17.11.2017 15:00:00 9,5 1,8 - - 8 4 - - NO 1029,6 35 0,0
17.11.2017 14:00:00 10,2 1,5 - - 5 3 - - NO 1029,8 35 0,0
17.11.2017 13:00:00 11,2 2,5 - - 4 2 - - ZO 1030,7 30 0,0
17.11.2017 12:00:00 9,0 2,6 - - 8 4 - - ZZO 1031,0 30 0,0
17.11.2017 11:00:00 6,1 3,6 - - 5 3 - - OZO 1031,5 30 0,0
17.11.2017 10:00:00 3,9 2,3 - - 8 4 - - O 1031,1 21 0,0
17.11.2017 09:00:00 2,3 1,4 - - 9 5 - - ONO 1031,0 27 0,0
17.11.2017 08:00:00 1,3 0,6 - - 11 6 - - O 1030,7 35 0,0
17.11.2017 07:00:00 1,6 0,9 - - 13 7 - - O 1030,4 40 0,0
17.11.2017 06:00:00 2,0 1,1 - - 11 6 - - O 1030,4 40 -
17.11.2017 05:00:00 2,4 1,2 - - 9 5 - - O 1030,2 30 0,0
17.11.2017 04:00:00 2,6 1,7 - - 9 5 - - O 1030,3 40 0,0
17.11.2017 03:00:00 3,3 2,1 - - 9 5 - - O 1030,4 30 0,0
17.11.2017 02:00:00 3,0 1,4 - - 11 6 - - O 1030,2 35 0,0
17.11.2017 01:00:00 3,3 1,1 - - 8 4 - - OZO 1030,3 40 0,0
17.11.2017 00:00:00 5,2 3,5 - - 9 5 - - O 1029,7 35 0,0
16.11.2017 23:00:00 4,6 2,7 - - 5 3 - - ZO 1029,4 40 0,0
16.11.2017 22:00:00 6,8 3,1 - - 8 4 - - O 1029,1 50 0,0
16.11.2017 21:00:00 7,3 2,8 - - 11 6 - - NNO 1028,3 40 0,0
16.11.2017 20:00:00 7,2 2,4 - - 13 7 - - NNO 1027,9 30 0,0
16.11.2017 19:00:00 7,7 2,8 - - 11 6 - - N 1027,3 35 -
16.11.2017 18:00:00 8,5 4,0 - - 13 7 - - N 1026,7 35 0,0
16.11.2017 17:00:00 9,7 5,3 - - 5 3 - - N 1025,8 35 -
16.11.2017 16:00:00 10,6 5,8 - - 9 5 - - NNW 1025,2 35 0,0
16.11.2017 15:00:00 10,2 7,4 - - 18 10 - - N 1024,4 40 0,2
16.11.2017 14:00:00 10,7 9,0 - - 24 13 - - N 1023,8 30 1,0
16.11.2017 13:00:00 12,2 11,2 - - 22 12 - - W 1023,4 24 0,6
16.11.2017 12:00:00 13,2 10,9 - - 18 10 - - WZW 1023,4 40 0,0
16.11.2017 11:00:00 12,5 10,0 - - 11 6 - - ZW 1023,5 35 0,0
16.11.2017 10:00:00 12,0 9,5 - - 11 6 - - ZW 1023,1 45 0,0
16.11.2017 09:00:00 10,6 9,1 - - 13 7 - - ZZW 1022,9 23 0,0
16.11.2017 08:00:00 10,0 8,5 - - 13 7 - - Z 1022,1 26 0,0
16.11.2017 07:00:00 10,6 9,3 - - 13 7 - - ZW 1022,2 30 0,0
16.11.2017 06:00:00 10,5 9,2 - - 11 6 - - ZW 1021,9 30 0,0
16.11.2017 05:00:00 10,4 9,2 - - 8 4 - - ZW 1021,8 22 0,0
16.11.2017 04:00:00 10,4 9,2 - - 4 2 - - ZZW 1021,7 22 0,0
16.11.2017 03:00:00 10,4 9,5 - - 9 5 - - Z 1022,0 20 0,0
16.11.2017 02:00:00 10,1 9,4 - - 5 3 - - Z 1022,3 14 0,0
16.11.2017 01:00:00 10,2 9,5 - - 8 4 - - ZO 1022,4 15 0,0
16.11.2017 00:00:00 10,5 9,8 - - 2 1 - - Z 1023,2 13 0,0
15.11.2017 23:00:00 10,6 9,8 - - 4 2 - - ZZW 1023,3 12 0,0
15.11.2017 22:00:00 10,6 9,6 - - 5 3 - - O 1023,3 15 0,0
15.11.2017 21:00:00 11,1 10,1 - - 11 6 - - ZZW 1023,5 22 0,0
15.11.2017 20:00:00 10,9 10,0 - - 4 2 - - ONO 1023,4 27 0,0
15.11.2017 19:00:00 10,8 9,8 - - 8 4 - - Z 1023,4 40 -
15.11.2017 18:00:00 10,8 9,8 - - 5 3 - - ZZO 1023,6 30 0,0
15.11.2017 17:00:00 11,9 10,4 - - 8 4 - - ZZW 1023,7 30 0,0
15.11.2017 16:00:00 12,7 11,4 - - 9 5 - - ZW 1023,9 26 0,0
15.11.2017 15:00:00 12,7 11,6 - - 9 5 - - W 1024,1 29 0,0
15.11.2017 14:00:00 12,6 12,0 - - 8 4 - - WZW 1024,3 35 0,8
15.11.2017 13:00:00 12,1 11,2 - - 4 2 - - OZO 1024,6 1,4 0,2
15.11.2017 12:00:00 12,5 11,3 - - 4 2 - - OZO 1024,6 10 0,0
15.11.2017 11:00:00 11,9 11,4 - - 5 3 - - O 1025,3 35 0,0
15.11.2017 10:00:00 11,2 10,8 - - 11 6 - - O 1025,1 35 0,0
15.11.2017 09:00:00 10,4 10,0 - - 13 7 - - O 1024,9 30 0,0
15.11.2017 08:00:00 10,5 10,0 - - 8 4 - - ONO 1024,9 26 0,0
15.11.2017 07:00:00 10,4 9,7 - - 5 3 - - O 1024,6 22 0,0
15.11.2017 06:00:00 11,1 10,1 - - 8 4 - - O 1024,5 40 0,0
15.11.2017 05:00:00 11,4 10,8 - - 11 6 - - ZW 1024,2 50 0,0
15.11.2017 04:00:00 11,6 10,8 - - 15 8 - - W 1024,1 40 0,0
15.11.2017 03:00:00 12,1 11,5 - - 15 8 - - W 1024,2 9 0,4
15.11.2017 02:00:00 12,6 11,8 - - 16 9 - - W 1024,1 19 0,0
15.11.2017 01:00:00 12,6 12,0 - - 16 9 - - W 1024,0 23 0,0
15.11.2017 00:00:00 12,5 12,2 - - 18 10 - - W 1024,2 20 0,0
14.11.2017 23:00:00 12,3 12,0 - - 18 10 - - WZW 1024,1 35 0,0
14.11.2017 22:00:00 12,2 11,9 - - 18 10 - - WZW 1024,2 29 0,4
14.11.2017 21:00:00 11,6 11,2 - - 13 7 - - ZW 1024,0 8 0,2
14.11.2017 20:00:00 11,8 11,0 - - 13 7 - - ZW 1024,2 10 0,0
14.11.2017 19:00:00 11,7 10,7 - - 15 8 - - ZW 1024,1 45 0,0
14.11.2017 18:00:00 11,7 10,7 - - 15 8 - - ZW 1024,1 25 0,0
14.11.2017 17:00:00 11,6 10,4 - - 11 6 - - ZZW 1023,9 50 0,0
14.11.2017 16:00:00 11,7 10,8 - - 24 13 - - WZW 1024,1 40 0,0
14.11.2017 15:00:00 12,0 10,8 - - 22 12 - - WZW 1024,1 35 0,0
14.11.2017 14:00:00 11,9 10,7 - - 24 13 - - WZW 1024,3 23 0,0
14.11.2017 13:00:00 12,2 11,1 - - 22 12 - - WZW 1024,4 30 0,0
14.11.2017 12:00:00 11,6 10,8 - - 22 12 - - WZW 1024,6 4,7 0,0
14.11.2017 11:00:00 12,0 10,4 - - 24 13 - - WZW 1024,8 29 0,0
14.11.2017 10:00:00 11,8 10,5 - - 22 12 - - WZW 1024,6 30 0,2
14.11.2017 09:00:00 12,0 9,3 - - 24 13 - - W 1024,3 35 0,0
14.11.2017 08:00:00 11,8 9,0 - - 22 12 - - W 1024,2 35 -
14.11.2017 07:00:00 11,7 8,4 - - 24 13 - - W 1024,0 27 0,0
14.11.2017 06:00:00 11,5 8,3 - - 26 14 - - W 1024,0 22 0,0
14.11.2017 05:00:00 11,4 8,0 - - 22 12 - - W 1024,2 29 0,0
14.11.2017 04:00:00 11,3 7,6 - - 24 13 - - W 1024,3 28 0,0
14.11.2017 03:00:00 11,2 7,2 - - 26 14 - - W 1024,6 25 0,0
14.11.2017 02:00:00 11,0 7,1 - - 24 13 - - W 1025,3 23 0,0
14.11.2017 01:00:00 10,6 7,1 - - 13 7 - - WZW 1025,8 35 0,0
14.11.2017 00:00:00 9,0 6,0 - - 13 7 - - ZW 1026,2 50 0,0
13.11.2017 23:00:00 9,1 5,7 - - 15 8 - - ZW 1026,3 50 0,0
13.11.2017 22:00:00 8,7 5,3 - - 13 7 - - ZW 1026,6 40 0,0
13.11.2017 21:00:00 9,2 5,3 - - 5 3 - - WZW 1026,8 45 0,0
13.11.2017 20:00:00 8,8 5,2 - - 13 7 - - W 1026,9 50 0,0
13.11.2017 19:00:00 7,8 3,2 - - 11 6 - - WNW 1027,5 45 0,0
13.11.2017 18:00:00 8,6 3,5 - - 8 4 - - WNW 1027,6 45 0,0
13.11.2017 17:00:00 8,8 4,4 - - 11 6 - - WNW 1027,5 50 0,0
13.11.2017 16:00:00 9,8 5,0 - - 11 6 - - WNW 1027,8 40 0,0
13.11.2017 15:00:00 9,7 5,4 - - 5 3 - - W 1027,8 45 0,0
13.11.2017 14:00:00 9,7 4,9 - - 5 3 - - WNW 1028,2 45 0,0
13.11.2017 13:00:00 9,6 4,8 - - 5 3 - - W 1028,6 40 0,0
13.11.2017 12:00:00 9,1 4,1 - - 4 2 - - ZO 1029,0 45 0,0
13.11.2017 11:00:00 6,3 3,4 - - 8 4 - - O 1029,3 45 0,0
13.11.2017 10:00:00 4,2 2,7 - - 11 6 - - O 1029,3 40 -
13.11.2017 09:00:00 1,8 0,9 10,0 12,4 11 6 - - O 1029,1 45 0,0
13.11.2017 08:00:00 0,3 -0,4 - - 9 5 - - O 1028,7 45 0,0
13.11.2017 07:00:00 0,6 -0,3 - - 13 7 - - O 1028,3 40 0,0
13.11.2017 06:00:00 1,2 0,2 - - 9 5 - - O 1027,9 40 0,0
13.11.2017 05:00:00 2,0 0,7 - - 9 5 - - O 1027,6 40 0,0
13.11.2017 04:00:00 2,8 0,3 - - 5 3 - - O 1027,2 50 0,0
13.11.2017 03:00:00 6,2 1,5 - - 9 5 - - NO 1027,0 50 0,0
13.11.2017 02:00:00 6,9 1,4 - - 8 4 - - N 1026,8 45 0,0
13.11.2017 01:00:00 7,5 1,8 - - 13 7 - - N 1026,4 40 0,0
13.11.2017 00:00:00 7,6 2,0 - - 8 4 - - N 1026,4 35 0,0
12.11.2017 23:00:00 8,2 1,4 - - 18 10 - - N 1025,5 50 0,0
12.11.2017 22:00:00 8,3 1,8 - - 21 11 - - NNW 1025,1 45 0,0
12.11.2017 21:00:00 8,2 2,4 - - 15 8 - - NNW 1024,7 50 0,0
12.11.2017 20:00:00 8,5 2,6 - - 24 13 - - NNW 1023,7 50 0,0
12.11.2017 19:00:00 8,2 3,0 - - 24 13 - - N 1022,8 35 0,0
12.11.2017 18:00:00 8,1 3,3 - - 22 12 59 32 NNW 1021,8 45 0,0
12.11.2017 17:00:00 8,8 2,0 - - 28 15 - - N 1020,6 50 0,0
12.11.2017 16:00:00 8,3 3,2 - - 22 12 50 27 N 1019,7 35 0,0
12.11.2017 15:00:00 8,6 3,4 - - 39 21 59 32 NNW 1018,6 25 0,0
12.11.2017 14:00:00 8,4 3,7 - - 34 18 57 31 NNW 1018,1 30 0,4
12.11.2017 13:00:00 7,7 3,9 - - 28 15 65 35 N 1017,6 30 -
12.11.2017 12:00:00 9,2 4,3 - - 48 26 65 35 NW 1016,4 35 0,0
12.11.2017 11:00:00 9,8 2,8 - - 46 25 68 37 NNW 1016,3 40 0,0
12.11.2017 10:00:00 9,2 3,6 - - 42 23 61 33 NW 1015,5 40 0,0
12.11.2017 09:00:00 9,1 3,1 11,9 12,4 39 21 54 29 NW 1015,4 28 0,0
12.11.2017 08:00:00 9,0 3,5 - - 37 20 57 31 NNW 1014,7 45 0,0
12.11.2017 07:00:00 9,2 3,6 - - 35 19 54 29 NNW 1014,1 50 0,0
12.11.2017 06:00:00 9,4 3,7 - - 35 19 48 26 NNW 1013,4 50 0,0
12.11.2017 05:00:00 9,4 7,7 - - 28 15 - - NNW 1012,4 16 0,4
12.11.2017 04:00:00 9,4 8,4 - - 16 9 - - N 1011,8 10 0,0
12.11.2017 03:00:00 9,7 8,9 - - 9 5 - - NNW 1011,2 50 0,0
12.11.2017 02:00:00 9,9 9,3 - - 16 9 - - N 1010,5 50 0,0
12.11.2017 01:00:00 10,1 9,8 - - 5 3 - - NNO 1010,3 7 0,6
12.11.2017 00:00:00 9,9 9,7 - - 9 5 - - O 1010,4 3,1 -
11.11.2017 23:00:00 10,1 9,8 - - 13 7 - - O 1011,1 9 0,2
11.11.2017 22:00:00 10,4 10,1 - - 11 6 - - OZO 1011,8 2,3 0,4
11.11.2017 21:00:00 10,4 10,0 - - 8 4 - - ONO 1012,2 3,4 0,4
11.11.2017 20:00:00 10,6 10,1 - - 11 6 - - O 1012,6 2,8 -
11.11.2017 19:00:00 11,4 10,8 - - 4 2 - - ONO 1013,0 2,3 1,0
11.11.2017 18:00:00 11,8 11,1 - - 5 3 - - N 1013,0 3,0 0,4
11.11.2017 17:00:00 12,3 11,4 - - 11 6 - - NW 1013,1 4,4 0,0

tt = temperatuur
td = dauwpunt
tt -20cm = temperatuur -20cm
tt -100cm = temperatuur -100cm
ff = windsnelheid
fx = windstoten
dd = windrichting
ppp = luchtdruk
vv = zicht
rr = neerslag

Weerstations in de omgeving